#timestamp,LO_Frequency,Hit,StdDev 
1632535215.5,286047002.7,N
1632535235.3,286047001.8,N
1632535255.2,286047002.8,N
1632535275.0,286047002.2,N
1632535275.9,286047002.2,N
1632535295.8,286047001.9,N
1632535315.6,286047000.5,N
1632535335.4,286047002.7,N
1632535355.3,286047004.4,Y
1632535375.1,286047002.4,P
1632535395.9,286047001.5,P
1632535415.7,286047002.1,P
1632535435.5,286047000.1,N
1632535455.4,286047002.8,Y
1632535475.2,286046998.5,P
1632535495.0,286047000.4,N
1632535495.9,286047000.4,N
1632535515.8,286047000.6,N
1632535535.6,286047001.2,N
1632535555.5,286046998.7,N
1632535575.3,286046998.7,N
1632535595.1,286046998.5,N
1632535615.9,286046998.4,N
1632535635.7,286046998.8,N
1632535655.5,286046999.2,N
1632535675.4,286046994.9,Y
1632535695.2,286046994.9,P
1632535715.1,286046995.6,N
1632535716.0,286046995.6,N
1632535735.8,286046997.2,N
1632535755.6,286046996.8,N
1632535775.5,286046999.4,N
1632535795.3,286046997.0,N
1632535815.2,286046999.0,N
1632535835.9,286046999.6,N
1632535855.7,286046999.3,N
1632535875.6,286046998.1,N
1632535895.4,286046998.5,N
1632535915.2,286046996.9,N
1632535935.1,286046999.2,N
1632535936.0,286046999.2,N
1632535955.8,286046998.8,N
1632535975.7,286046998.4,N
1632535995.5,286046999.1,N
1632536015.3,286046998.7,N
1632536035.2,286047001.2,N
1632536055.0,286047000.3,N
1632536055.9,286047000.3,N
1632536075.8,286047000.5,N
1632536095.6,286047000.0,N
1632536115.4,286047001.0,N
1632536135.3,286047000.2,N
1632536155.1,286047002.2,N
1632536175.8,286047001.8,N
1632536195.7,286047001.4,N
1632536215.5,286047004.3,N
1632536235.4,286047002.2,N
1632536255.2,286047002.6,N
1632536275.0,286047002.6,N
1632536275.9,286047002.6,N
1632536295.8,286047002.1,N
1632536315.6,286047000.6,N
1632536335.5,286047000.1,N
1632536355.3,286047002.1,N
1632536375.1,286047000.6,N
1632536395.9,286047000.0,N
1632536415.7,286046999.3,N
1632536435.5,286046996.5,N
1632536455.4,286046998.4,N
1632536475.2,286047000.8,N
1632536495.1,286047001.0,N
1632536496.0,286047001.0,N
1632536515.8,286046998.9,N
1632536535.6,286046998.9,N
1632536555.5,286046998.1,N
1632536575.3,286046998.2,N
1632536595.1,286047001.0,N
1632536615.9,286047000.5,N
1632536635.7,286047000.5,N
1632536655.6,286047000.3,N
1632536675.4,286046998.3,N
1632536695.2,286046998.1,N
1632536715.1,286046999.9,N
1632536716.0,286046999.9,N
1632536735.8,286047002.2,N
1632536755.7,286047000.9,N
1632536775.5,286046998.5,N
1632536795.3,286047000.8,N
1632536815.2,286047001.1,N
1632536835.0,286046999.9,N
1632536835.9,286046999.9,N
1632536855.8,286047000.0,N
1632536875.6,286046999.8,N
1632536895.4,286047001.8,N
1632536915.3,286047002.5,N
1632536935.1,286047002.6,N
1632536955.8,286047001.9,N
1632536975.7,286047001.4,N
1632536995.5,286047001.9,N
1632537015.4,286047001.5,N
1632537035.2,286047002.6,N
1632537055.0,286047000.3,N
1632537055.9,286047000.3,N
1632537075.8,286047002.6,N
1632537095.6,286047002.1,N
1632537115.5,286047004.3,Y
1632537135.3,286047002.4,P
1632537155.1,286047001.5,N
1632537175.9,286047001.8,N
1632537195.7,286047004.4,Y
1632537215.5,286047000.3,P
1632537235.4,286047000.1,N
1632537255.2,286047000.5,N
1632537275.1,286046998.7,N
1632537276.0,286046998.7,N
1632537295.8,286046997.0,N
1632537315.6,286046999.5,N
1632537335.5,286046999.0,N
1632537355.3,286046999.5,N
1632537375.1,286046996.5,N
1632537395.9,286046997.6,N
1632537415.7,286046997.3,N
1632537435.6,286046994.9,Y
1632537455.4,286046996.9,P
1632537475.2,286046999.0,N
1632537495.1,286047001.2,N
1632537496.0,286047001.2,N
1632537515.8,286047000.8,N
1632537535.7,286047000.7,N
1632537555.5,286047000.2,N
1632537575.3,286046999.8,N
1632537595.2,286047000.8,N
1632537615.9,286047001.0,N
1632537635.7,286046999.0,N
1632537655.6,286046999.2,N
1632537675.4,286046999.4,N
1632537695.3,286046999.5,N
1632537715.1,286046999.0,N
1632537716.0,286046999.0,N
1632537735.8,286046999.4,N
1632537755.7,286046999.1,N
1632537775.5,286046999.5,N
1632537795.3,286046999.0,N
1632537815.2,286046999.0,N
1632537835.0,286046998.2,N
1632537835.9,286046998.2,N
1632537855.8,286046998.1,N
1632537875.6,286046999.0,N
1632537895.4,286047000.7,N
1632537915.3,286047000.6,N
1632537935.1,286046999.8,N
1632537955.8,286046998.4,N
1632537975.7,286046998.5,N
1632537995.5,286046998.5,N
1632538015.4,286046999.9,N
1632538035.2,286047002.7,N
1632538055.0,286047000.2,N
1632538055.9,286047000.2,N
1632538075.8,286047002.1,N
1632538095.6,286046999.8,N
1632538115.4,286046999.7,N
1632538135.3,286047001.9,N
1632538155.1,286047001.5,N
1632538175.9,286047001.8,N
1632538195.7,286047001.9,N
1632538215.5,286047001.4,N
1632538235.4,286047001.3,N
1632538255.2,286046999.8,N
1632538275.0,286047000.9,N
1632538276.0,286047000.9,N
1632538295.8,286047001.0,N
1632538315.6,286047000.7,N
1632538335.5,286046998.1,N
1632538355.3,286046999.7,N
1632538375.1,286047002.6,N
1632538395.9,286047001.6,N
1632538415.3,286047001.5,N
1632538435.2,286047004.4,Y
1632538455.0,286047002.6,P
1632538455.9,286047002.6,N
1632538475.8,286047001.9,N
1632538495.6,286047002.6,Y
1632538515.4,286047001.1,P
1632538535.3,286047000.8,N
1632538555.1,286047000.5,N
1632538575.8,286046999.7,N
1632538595.7,286046999.9,N
1632538615.5,286047002.4,Y
1632538635.4,286046999.7,P
1632538655.2,286047002.8,P
1632538675.0,286047000.2,N
1632538675.9,286047000.2,N
1632538695.8,286046998.8,N
1632538715.6,286046998.8,N
1632538735.5,286046998.6,N
1632538755.3,286046998.2,N
1632538775.1,286046998.7,N
1632538795.9,286046998.4,N
